Location: Newark
(54.2500°N, 9.1833°E)
Time: 05:02:10
(UTC+00:00)

Transit 4A - Pass Details

Date: 20 December 2019
Orbit: 871 x 973 km, 66.8° (Epoch: 20 January)

Event Time Altitude Azimuth Distance (km) Brightness Sun altitude
Rises 18:15:00 0° 288° (WNW) 3,547 12.0 -26.6°
Reaches altitude 10° 18:18:02 10° 302° (WNW) 2,588 10.9 -27.1°
Maximum altitude 18:22:51 24° 356° (N) 1,747 9.3 -27.8°
Enters shadow 18:23:23 24° 4° (N) 1,757 9.2 -27.9°
